Minot, ND

12:35 AM CDT on May 27, 2018 (GMT -0500)
Minot International

Weather History for KMOT - December, 2013

Change the Weather History Date:

Monday, December 23, 2013

  Actual Average Record
Temperature  
Mean Temperature -11 °F 13 °F  
Max Temperature 4 °F 22 °F 47 °F (1936)
Min Temperature -27 °F 5 °F -36 °F (1983)
Degree Days  
Heating Degree Days 76 52  
Month to date heating degree days 1455 1120  
Since 1 July heating degree days 3510 3178  
Moisture  
Dew Point -18 °F    
Average Humidity 73    
Maximum Humidity 82    
Minimum Humidity 64    
Precipitation  
Precipitation T in 0.01 in 0.30 in (1933)
Month to date precipitation 0.16 0.27  
Year to date precipitation 24.97 17.08  
Sea Level Pressure  
Sea Level Pressure 30.46 in    
Wind  
Wind Speed 10 mph (South)    
Max Wind Speed 23 mph    
Max Gust Speed 30 mph    
Visibility 8 miles    
Events Snow    
T = Trace of Precipitation, MM = Missing Value Source: NWS Daily Summary

Daily Weather History Graph

Daily Weather History Graph

Search for Another Location

Airport or City:

Astronomy

Dec. 23, 2013 Rise Set
Actual Time 8:34 AM CST 4:54 PM CST
Civil Twilight 7:57 AM CST 5:31 PM CST
Nautical Twilight 7:17 AM CST 6:11 PM CST
Astronomical Twilight 6:39 AM CST 6:49 PM CST
Moon 11:34 PM CST (12/23) 11:34 AM CST (12/23)
Length of Visible Light 9h 33m
Length of Day
8h 20m
Waning Gibbous, 68% of the Moon is Illuminated
Dec 23
Waning Gibbous
Dec 25
Last Quarter
Jan 1
New
Jan 7
First Quarter
Jan 15
Full

Hourly Weather History & Observations

Time (CST) Temp. Windchill Dew Point Humidity Pressure Visibility Wind Dir Wind Speed Gust Speed Precip Events Conditions
12:54 AM -17.0 °F -34.8 °F -22.0 °F 78% 30.63 in 10.0 mi West 8.1 mph - N/A   Clear
1:54 AM -20.9 °F -38.1 °F -26.0 °F 77% 30.64 in 10.0 mi SW 6.9 mph - N/A   Clear
2:54 AM -20.9 °F -31.7 °F -25.1 °F 81% 30.64 in 10.0 mi SW 3.5 mph - N/A   Clear
3:54 AM -20.0 °F -30.7 °F -26.0 °F 74% 30.65 in 10.0 mi SSW 3.5 mph - N/A   Clear
4:54 AM -22.0 °F -41.0 °F -27.0 °F 77% 30.66 in 10.0 mi SW 8.1 mph - N/A   Clear
5:54 AM -22.0 °F -42.3 °F -27.0 °F 77% 30.65 in 10.0 mi SW 9.2 mph - N/A   Clear
6:54 AM -23.1 °F -42.3 °F -27.9 °F 78% 30.65 in 10.0 mi SW 8.1 mph - N/A   Clear
7:54 AM -23.1 °F -43.7 °F -27.9 °F 78% 30.66 in 10.0 mi SW 9.2 mph - N/A   Clear
8:54 AM -25.1 °F -39.1 °F -29.0 °F 82% 30.65 in 10.0 mi SSE 4.6 mph - N/A   Clear
9:54 AM -20.9 °F -38.1 °F -27.0 °F 73% 30.64 in 10.0 mi SW 6.9 mph - N/A   Clear
10:37 AM -18.0 °F -38.6 °F -23.1 °F 78% 30.43 in 3.0 mi South 10.4 mph - N/A   Haze
10:40 AM -18.0 °F -38.6 °F -23.1 °F 78% 30.43 in 2.5 mi SSW 10.4 mph - N/A   Haze
10:51 AM -16.6 °F -38.9 °F -23.8 °F 70% 30.42 in 1.5 mi SSW 12.7 mph - N/A   Haze
10:54 AM -17.0 °F -38.4 °F -22.0 °F 78% 30.62 in 1.5 mi SSW 11.5 mph - N/A   Haze
11:30 AM -14.1 °F -31.3 °F -18.9 °F 79% 30.41 in 2.5 mi SSW 8.1 mph - N/A   Haze
11:44 AM -11.9 °F -28.7 °F -18.0 °F 74% 30.40 in 3.0 mi SSW 8.1 mph - N/A   Haze
11:54 AM -11.0 °F -29.9 °F -17.0 °F 75% 30.58 in 4.0 mi South 10.4 mph - N/A   Haze
12:13 PM -11.0 °F -27.6 °F -16.1 °F 78% 30.38 in 10.0 mi South 8.1 mph - N/A   Scattered Clouds
12:54 PM -9.0 °F -27.4 °F -15.0 °F 75% 30.54 in 10.0 mi SSW 10.4 mph - N/A   Clear
1:35 PM -7.1 °F -27.6 °F -14.1 °F 72% 30.33 in 2.0 mi South 13.8 mph - N/A   Haze
1:54 PM -6.0 °F -25.5 °F -14.1 °F 68% 30.51 in 4.0 mi South 12.7 mph - N/A   Haze
2:54 PM -6.0 °F -21.5 °F -14.1 °F 68% 30.47 in 10.0 mi SSE 8.1 mph - N/A   Clear
3:54 PM -6.0 °F -27.0 °F -14.1 °F 68% 30.45 in 10.0 mi South 15.0 mph - N/A   Clear
4:54 PM -7.1 °F -22.8 °F -15.0 °F 68% 30.42 in 10.0 mi SSE 8.1 mph - N/A   Clear
5:54 PM -6.0 °F -21.5 °F -13.0 °F 72% 30.37 in 10.0 mi SSE 8.1 mph - N/A   Clear
6:54 PM -9.0 °F -25.2 °F -15.0 °F 75% 30.32 in 10.0 mi ESE 8.1 mph - N/A   Clear
7:54 PM -2.0 °F -22.6 °F -9.0 °F 72% 30.27 in 10.0 mi SSE 16.1 mph - N/A   Clear
8:54 PM -2.0 °F -22.6 °F -8.0 °F 76% 30.22 in 10.0 mi SSE 16.1 mph - N/A   Clear
9:54 PM -0.0 °F -18.7 °F -6.0 °F 76% 30.17 in 10.0 mi SSE 13.8 mph - N/A   Clear
10:54 PM 1.9 °F -19.2 °F -4.0 °F 76% 30.13 in 10.0 mi SSE 19.6 mph 31.1 mph N/A   Overcast
11:54 PM 3.9 °F -18.1 °F -2.0 °F 76% 30.05 in 7.0 mi SSE 23.0 mph 28.8 mph 0.00 in Snow Light Snow